Weather History for Dallas Redbird, TX

Change the Weather History Date:

Thursday, October 4, 2012

  Actual Average Record
Temperature  
Mean Temperature 74 °F -  
Max Temperature 86 °F 79 °F 91 °F (1998)
Min Temperature 64 °F 58 °F 48 °F (2014)
Cooling Degree Days 9    
Growing Degree Days 24 (Base 50)    
Moisture  
Dew Point 62 °F    
Average Humidity 64    
Maximum Humidity 81    
Minimum Humidity 51    
Precipitation  
Precipitation 0.00 in - - ()
Sea Level Pressure  
Sea Level Pressure 30.05 in    
Wind  
Wind Speed 8 mph (SSE)    
Max Wind Speed 14 mph    
Max Gust Speed 24 mph    
Visibility 10 miles    
Events      
Averages and records for this station are not official NWS values.
T = Trace of Precipitation, MM = Missing Value Source: NWS Daily Summary

Daily Weather History Graph

Daily Weather History Graph

Search for Another Location

Airport:

Trip Planner

Search our weather history database for the weather conditions in past years. The results will help you decide how hot, cold, wet, or windy it might be!

Date:

Astronomy

Oct. 04, 2012 Rise Set
Actual Time 7:23 AM CDT 7:07 PM CDT
Civil Twilight 6:59 AM CDT 7:32 PM CDT
Nautical Twilight 6:30 AM CDT 8:00 PM CDT
Astronomical Twilight 6:02 AM CDT 8:29 PM CDT
Moon 9:59 PM CDT (10/4) 11:27 AM CDT (10/4)
Length of Visible Light 12h 32m
Length of Day
11h 43m
Waning Gibbous, 82% of the Moon is Illuminated
Oct 4
Waning Gibbous
Oct 8
Last Quarter
Oct 15
New
Oct 21
First Quarter
Oct 29
Full

Hourly Weather History & Observations

Time (CDT) Temp. Heat Index Dew Point Humidity Pressure Visibility Wind Dir Wind Speed Gust Speed Precip Events Conditions
12:53 AM 66.9 °F - 54.0 °F 63% 30.00 in 10.0 mi SSE 5.8 mph - N/A   Clear
1:53 AM 64.9 °F - 55.0 °F 70% 30.01 in 10.0 mi SSE 4.6 mph - N/A   Clear
2:53 AM 64.9 °F - 55.0 °F 70% 30.02 in 10.0 mi SSE 4.6 mph - N/A   Clear
3:53 AM 64.9 °F - 55.0 °F 70% 30.02 in 10.0 mi SSE 4.6 mph - N/A   Clear
4:53 AM 64.0 °F - 55.9 °F 75% 30.03 in 10.0 mi SSE 5.8 mph - N/A   Clear
5:53 AM 64.0 °F - 57.0 °F 78% 30.04 in 10.0 mi SSE 5.8 mph - N/A   Clear
6:53 AM 64.0 °F - 57.9 °F 80% 30.05 in 10.0 mi SSE 6.9 mph - N/A   Clear
7:53 AM 64.9 °F - 59.0 °F 81% 30.06 in 10.0 mi SSE 6.9 mph - N/A   Clear
8:53 AM 68.0 °F - 60.1 °F 76% 30.08 in 10.0 mi SE 8.1 mph - N/A   Clear
9:53 AM 75.0 °F - 61.0 °F 62% 30.08 in 10.0 mi SE 12.7 mph 24.2 mph N/A   Clear
10:35 AM 75.2 °F - 64.4 °F 69% 30.10 in 10.0 mi SSE 12.7 mph 24.2 mph N/A   Mostly Cloudy
10:53 AM 78.1 °F - 64.9 °F 64% 30.09 in 10.0 mi SSE 8.1 mph 17.3 mph N/A   Overcast
11:53 AM 79.0 °F - 66.0 °F 64% 30.09 in 10.0 mi SSE 11.5 mph 18.4 mph N/A   Overcast
12:53 PM 82.0 °F 84.5 °F 66.9 °F 60% 30.09 in 10.0 mi SSE 12.7 mph 19.6 mph N/A   Overcast
1:53 PM 84.9 °F 87.6 °F 66.9 °F 55% 30.06 in 10.0 mi SE 13.8 mph 21.9 mph N/A   Mostly Cloudy
2:53 PM 84.9 °F 87.1 °F 66.0 °F 53% 30.05 in 10.0 mi SSE 11.5 mph - N/A   Overcast
3:53 PM 84.9 °F 87.1 °F 66.0 °F 53% 30.04 in 10.0 mi SSE 11.5 mph 19.6 mph N/A   Mostly Cloudy
5:53 PM 84.9 °F 86.6 °F 64.9 °F 51% 30.02 in 10.0 mi SSE 6.9 mph - N/A   Overcast
6:53 PM 84.0 °F 85.8 °F 64.9 °F 53% 30.03 in 10.0 mi SE 8.1 mph - N/A   Overcast
7:53 PM 82.0 °F 83.8 °F 64.9 °F 56% 30.03 in 10.0 mi SE 11.5 mph - N/A   Overcast
8:53 PM 81.0 °F 82.7 °F 64.9 °F 58% 30.05 in 10.0 mi SE 12.7 mph 20.7 mph N/A   Overcast
9:53 PM 80.1 °F 81.9 °F 64.9 °F 60% 30.04 in 10.0 mi SE 10.4 mph - N/A   Scattered Clouds
10:53 PM 78.1 °F - 64.9 °F 64% 30.04 in 10.0 mi SSE 6.9 mph - N/A   Clear
11:53 PM 78.1 °F - 64.0 °F 62% 30.04 in 10.0 mi SSE 12.7 mph - N/A   Clear